www.pogodaiklimat.ru
ПОГОДА в Лудингтоне
Время
и дата
16:35 14.01
16:55 14.01
17:15 14.01
17:35 14.01
17:55 14.01
18:15 14.01
18:35 14.01
18:55 14.01
19:15 14.01
19:35 14.01
19:55 14.01
20:15 14.01
20:35 14.01
20:55 14.01
21:15 14.01
21:35 14.01
21:55 14.01
22:15 14.01
22:35 14.01
22:55 14.01
23:15 14.01
23:35 14.01
23:55 14.01
00:15 15.01
00:35 15.01
00:55 15.01
01:15 15.01
01:35 15.01
01:55 15.01
02:15 15.01
02:35 15.01
02:55 15.01
03:15 15.01
03:35 15.01
03:55 15.01
04:15 15.01
04:35 15.01
04:55 15.01
05:15 15.01
05:35 15.01
05:55 15.01
06:15 15.01
06:35 15.01
06:55 15.01
07:15 15.01
07:35 15.01
07:55 15.01
08:15 15.01
Ветер
(напр.,м/с)
Видим. Явления Облачность Т
(С)
Тd
(С)
f
(%)
Тe
(С)
Тes
(С)
Комфортность P
(гПа)
Po
(гПа)
Тmin
(С)
Tmax
(С)
R
(мм)
R24
(мм)
S
(см)
В 2 16 км ясно +4.6 +0.1 73 +1 +1 977.4
В 2 16 км ясно +4.5 +0.1 73 0 +1 977.1
В 2 16 км ясно +4.2 0.0 74 0 0 977.1
В 2 16 км ясно +4.2 0.0 74 0 0 977.1
В 2 16 км ясно +4.1 0.0 75 0 0 977.1
В 2
{3}
16 км 5/0 3600 м
[Ac]
+4.0 0.0 75 -1 -1 977.1
В 2 16 км 10/0 3300 м
[Ac]
+3.8 0.0 76 -1 -1 977.1
В 2
{4}
16 км 10/0 3300 м
[Ac]
+3.7 -0.1 76 -1 -1 976.7 +3.6 +5.3
ЮВ 2 16 км 8/0 3600 м
[Ac]
+3.6 -0.1 77 -1 -1 976.7
ЮВ 2 16 км 10/0 3300 м
[Ac]
+3.5 0.0 78 -1 -1 977.1
В 2 16 км 10/0 2550 м
[Ac]
+3.2 0.0 80 -1 -1 977.1
ЮВ 2 16 км 10/0 2550 м
[Ac]
+3.3 0.0 79 -2 -2 977.4
ЮВ 2 11 км 10/0 2550 м
[Ac]
+3.3 0.0 79 -2 -2 977.1
В 2 11 км 10/5 1950 м
[Ac]
+3.3 0.0 79 -1 -1 977.1
В 2 11 км 10/5 1950 м
[Ac]
+3.3 0.0 79 -1 -1 977.1
В 2 11 км 10/0 2250 м
[Ac]
+3.1 0.0 80 -2 -2 976.4
В 2 11 км 10/5 870 м
[Ac]
+3.0 0.0 81 -2 -2 976.4
В 2 11 км 10/8 810 м
[Ac]
+3.2 0.0 80 -1 -1 976.1
В 2 11 км 10/10 690 м +3.2 0.0 80 -1 -1 976.1
В 2 11 км 10/10 690 м +3.2 +0.1 80 -1 -1 975.7
В 1 11 км 10/10 630 м +3.2 +0.1 80 -1 -1 975.7
В 2 11 км слабый дождь 10/10 630 м +3.1 +0.1 81 -2 -2 975.4
ЮВ 2 11 км слабый дождь 10/10 510 м +3.0 +0.5 84 -2 -2 975.4
В 2 11 км слабый дождь 10/10 570 м +3.0 +0.8 85 -2 -2 975.4
В 1 11 км слабый дождь 10/10 570 м +2.8 +0.7 86 -1 -1 975.4
В 1 8 км слабый дождь 10/10 510 м +3.0 +0.6 84 -1 -1 975.4 +2.6 +3.6
В 2 6 км слабый дождь 10/10 450 м +2.7 +1.0 89 -2 -2 975.4
В 2 6 км слабый дождь 10/10 330 м +2.2 +1.0 92 -3 -3 975.1
В 2 6 км слабый снег 10/10 330 м +1.9 +0.8 92 -3 -3 974.8
В 2 6 км слабый снег 10/10 270 м +1.7 +0.7 93 -4 -4 975.1
В 2 4 км слабый снег 10/10 210 м +1.0 +0.2 94 -4 -4 975.1
В 2 5 км слабый снег 10/10 150 м +1.1 +0.5 96 -4 -4 975.1
В 2 5 км слабый снег 10/10 210 м +1.3 +0.5 94 -4 -4 975.1
ЮВ 2 6 км слабый дождь 10/10 210 м +1.5 +0.6 94 -4 -4 975.1
В 2 5 км слабый дождь 10/10 210 м +1.5 +0.7 94 -4 -4 975.1 2.8
В 1 4 км слабый снег 10/10 210 м +1.6 +0.8 94 -3 -3 974.8
В 2 3 км слабый снег 10/10 210 м +1.6 +1.0 96 -4 -4 974.8
ЮВ 1 4 км снег 10/10 210 м +1.8 +1.1 95 -3 -3 975.1
ЮВ 1 5 км слабый дождь 10/10 210 м +1.8 +1.1 95 -3 -3 975.1
ЮВ 1 5 км слабый дождь 10/10 210 м +1.9 +1.1 94 -2 -2 975.1
ЮВ 1 5 км слабый дождь 10/10 210 м +2.0 +1.1 94 -1 -1 975.1
ЮВ 1 5 км слабый дождь 10/10 210 м +2.0 +1.1 94 -1 -1 975.1
ЮВ 1 5 км слабый дождь 10/10 210 м +1.8 +1.0 94 -2 -2 975.1
В 1 5 км слабый дождь 10/10 210 м +1.7 +1.0 95 -2 -2 975.1 +1.0 +2.8 3.6 3.6
В 1 5 км слабый дождь 10/10 210 м +1.6 +1.0 96 -3 -3 975.1
штиль 0 5 км дымка 10/10 270 м +1.6 +1.0 96 0 0 975.4
ЮВ 1 5 км дымка 10/10 480 м +1.5 +1.0 96 -2 -2 975.4
В 1 5 км дымка 10/10 540 м +1.5 +0.8 95 -2 -2 975.4
Местоположение метеостанции Mason County Airport: широта 43.9667 долгота -86.4000 высота над уровнем моря 197 м.
В архиве по умолчанию представлена погода в Лудингтоне за последние 1-2 суток. Обновление информации о фактической погоде в базе происходит ежечасно! Архивные данные за месяц целиком и за предыдущие месяцы Вы можете получить, выбрав интересующий диапазон дат из раскрывающегося списка и нажав кнопку "Ввод!".
Внимание! Архив погоды МЕТАР в базе сайта по станциям, не включенным в климатический монитор, хранится не более 60 дней. Нет смысла пытаться выбрать более раннюю дату.
*Определитесь, кто Вы:
Внимание! Время в таблицах - местное (без учета летнего времени). Для получения всемирного времени необходимо вычесть поправку, которая равна -5 ч.
Смотрите также архив погоды в соседних городах и на ближайших метеорологических станциях:
Партнеры нашего сайта:      
Пояснения к столбцам:
  • Ветер - указаны скорость ветра в м/с - средняя за 10 мин, порывы в срок и между сроками (в фигурных скобках) и направление, откуда дует ветер: С - северный,
  • СВ - северо-восточный, В - восточный, ЮВ - юго-восточный, Ю - южный, ЮЗ - юго-западный, З - западный, СЗ - северо-западный.
  • Видимость - горизонтальная дальность видимости в метрах или километрах. При видимости от 1 до 10 км при отсутствии осадков обычно наблюдается дымка, при ухудшении видимости до 1 км и менее - туман. В сухую погоду видимость может ухудшаться дымом, пылью или мглою.
  • Явления - указаны атмосферные явления, наблюдавшиеся в срок или в последний час перед сроком; фигурными скобками обозначены явления, наблюдавшиеся между сроками (за 1-3 часа до срока); квадратными скобками обозначены град или гололедные отложения с указанием их диаметра в мм.
  • Облачность - указаны через наклонную черту общая и нижняя облачность в баллах и высота нижней границы облаков в метрах; квадратными скобками обозначены формы облаков: Ci - перистые, Cs - перисто-слоистые, Cc - перисто-кучевые, Ac - высококучевые, As - высокослоистые, Sc - слоисто-кучевые, Ns - слоисто-дождевые, Cu - кучевые, Cb - кучево-дождевые. Подробнее классификацию облаков см. в Атласе облаков (PDF).
  • T - Температура воздуха - температура, измеренная на высоте 2 м над землей.
  • Td - Температура точки росы - температура, при понижении до которой содержащийся в воздухе водяной пар достигнет насыщения.
  • f - Относительная влажность воздуха - влажноcть воздуха, измеренная на высоте 2 м над землей.
  • Te - Эффективная температура - температура, которую ощущает одетый по сезону человек в тени. Характеристика душности погоды. При расчете учитывается влияние влажности воздуха и скорости ветра на теплоощущения человека.
  • Tes - Эффективная температура на солнце - температура, которую ощущает человек, с поправкой на солнечный нагрев. Характеристика знойности погоды. Зависит от высоты солнца над горизонтом, облачности и скорости ветра. Ночью, в пасмурную погоду, а также при ветре 12 м/с и более поправка равна нулю.
  • P - Атмосферное давление - приведенное к уровню моря атмосферное давление.
  • Po - Атмосферное давление - измеренное на уровне метеостанции атмосферное давление.
  • Tmin - Минимальная температура - минимум температуры воздуха на высоте 2 м над землей.
  • Tmax - Максимальная температура - максимум температуры воздуха на высоте 2 м над землей.
  • R - Количество осадков - Количество выпавших осадков за период времени, мм. При наведении курсора мыши на число - период времени, за который выпало указанное количество осадков.
  • R24 - Количество осадков - Количество выпавших осадков за 24 часа, мм.
  • S - Снежный покров - Высота снежного покрова, см. При наведении курсора мыши на число - состояние снежного покрова и степень покрытия местности в баллах.